Location: Maynard F. Jordan Observatory
(44.9000°N, 68.6700°W)
Time: 23:42:53
(UTC-04:00)

Cosmos 2297 Rocket - Visible Passes

Search period start: 25 June 2017 00:00
Search period end: 05 July 2017 00:00
Orbit: 838 x 845 km, 71.0° (Epoch: 25 June)

Date Brightness Start Highest point End Pass type
(mag) Time Alt. Az. Time Alt. Az. Time Alt. Az.
25 Jun 3.1 21:09:24 10° SW 21:14:55 54° WNW 21:20:30 10° NNE visible
25 Jun 5.4 22:58:12 10° WNW 23:00:21 12° NW 23:02:29 10° NNW visible
26 Jun 3.1 20:54:16 10° SW 20:59:49 57° WNW 21:05:25 10° NNE visible
26 Jun 5.4 22:42:49 10° WNW 22:45:11 12° NW 22:47:33 10° NNW visible
27 Jun 5.3 04:03:01 10° N 04:07:03 19° NE 04:11:03 10° E visible
27 Jun 5.5 22:27:28 10° WNW 22:30:01 13° NW 22:32:36 10° NNW visible
28 Jun 5.4 03:48:00 10° N 03:51:54 19° NE 03:55:47 10° E visible
28 Jun 5.5 22:12:07 10° WNW 22:14:52 14° NW 22:17:37 10° N visible
29 Jun 5.3 03:32:58 10° N 03:36:45 18° NE 03:40:32 10° E visible
29 Jun 5.5 21:56:48 10° WNW 21:59:43 14° NW 22:02:38 10° N visible
30 Jun 5.3 03:17:56 10° N 03:21:37 17° NE 03:25:16 10° E visible
30 Jun 5.6 21:41:29 10° WNW 21:44:33 15° NW 21:47:38 10° N visible
01 Jul 5.3 03:02:55 10° N 03:06:27 17° NE 03:09:59 10° E visible
01 Jul 5.5 21:26:10 10° WNW 21:29:24 15° NW 21:32:38 10° N visible
02 Jul 5.2 02:47:54 10° N 02:51:18 16° NE 02:54:42 10° E visible
02 Jul 5.4 21:10:53 10° WNW 21:14:15 16° NW 21:17:38 10° N visible
03 Jul 5.2 02:32:54 10° N 02:36:10 15° NE 02:39:25 10° ENE visible
03 Jul 2.6 04:15:34 10° NNW 04:21:16 73° ENE 04:26:55 10° SSE visible
03 Jul 5.4 20:55:36 10° W 20:59:06 16° NW 21:02:37 10° N visible
04 Jul 5.2 02:17:53 10° N 02:21:00 15° NE 02:24:06 10° ENE visible
04 Jul 2.6 04:00:28 10° NNW 04:06:10 70° ENE 04:11:48 10° SSE visible
